星链-32700 (STARLINK-32700)

导读

STARLINK-32700是美国SpaceX公司星链(Starlink)项目的卫星,于2024年12月13日发射升空。星链项目旨在构建全球卫星互联网星座,为全球偏远、基础设施缺乏地区提供低延迟、高速宽带互联网服务。该卫星被部署在近地轨道,属于星链星座的一员,助力拓展全球网络覆盖范围,推动太空互联网基础设施的持续完善,目前星链已在全球六十多个国家和地区提供服务。

基本信息
目录编号:
62311
目录名称:
STARLINK-32700
国际标识:
2024-239L
轨道中心:
EARTH
卫星名称:
星链-32700
卫星全名:
星链-32700 (STARLINK-32700)
卫星状态:
在轨 (已飞行548 天)
发射日期:
2024-12-13 UTC
国别 :
美国 (US)
星等 :
--
轨道信息
数据来源 国际轨道数据
星历时间: 2026-06-13T20:21:13+0800
21小时前
查看轨道信息
半长轴: 6853.293km
偏心率: 0.0001332
轨道倾角: 53.159°
近地点辐角 67.977°
升交点赤经 96.144°
平近点角 292.137°
近地点: 474.243km
远地点: 476.069km
周期: 94.104分钟
每日圈数: 15.3022
详细信息
固有亮度:
5
最大亮度:
2.5
卫星平台:
Starlink V1.0
覆盖范围:
全球
运营商:
太空探索技术公司
运营商所在国:
美国
制造商(研发单位):
太空探索技术公司
制造商所在国:
美国
使用方式:
暂无
卫星简介
Starlink 计划是 SpaceX 推出的全球卫星互联网项目,通过发射低轨道卫星,为全球尤其是偏远地区提供高速、低延迟的互联网服务。自 2019 年起,Starlink 已部署数千颗卫星,旨在缩小全球数字鸿沟,推动互联网普及。该项目还为军事、航空等行业提供通信支持,带来广泛经济效益。
2D轨道图
3D轨道图
轨道高度分析图
轨道倾角分析图
轨道综合分析图
查看轨道综合分析图